[[{"header":{"parameterUnit":"m.s-1","parameterCategory":1,"la1":30.2991,"la2":30.254,"lo1":-89.0895,"lo2":-89.0444,"dy":0.0017,"dx":0.0017,"nx":28,"ny":28,"refTime":"2023-08-26T03:00:00:Z","depth":0,"parameterNumber":2,"parameterNumberName":"U-component_of_WINDS"},"data":[0,0,0,0,0,0,0,0,0,0,0,0,0,0,0,0,0,0,0,0,0,0,0,0,0,0,0,0,0,0,0,0,0,0,0,0,0,0,0,0,0,0,0,0,0,0,0,0,0,0,0,0,0,0,0,0,0,0,0.6818,0.682,0,0.7016,0.7018,0.702,0.6985,0.6981,0.6978,0.6975,0.7181,0.7189,0.7198,0,0,0,0,0,0,0,0,0,0,0,0,0,0.6414,0.6422,0.6818,0.6821,0.6823,0.7015,0.7018,0.7021,0.6986,0.6981,0.6977,0.6973,0.7178,0.7188,0.7199,0,0,0,0,0,0,0,0,0,0,0,0,0,0.6599,0.6424,0.6818,0.6828,0.6831,0.7015,0.7018,0.7021,0.6986,0.6981,0.6976,0.6971,0.7174,0.7187,0.72,0.7386,0,0,0.724,0.7246,0,0,0,0,0,0,0,0,0.6588,0.6614,0.6824,0.6828,0.6832,0.697,0.6951,0.7144,0.6988,0.6928,0.6974,0.6968,0.7115,0.7133,0.7182,0.7396,0.7405,0.7241,0.7249,0.7255,0.7259,0,0,0,0,0,0,0,0.6576,0.6605,0.6896,0.6828,0.6832,0.6825,0.6845,0.6988,0.7049,0.6933,0.693,0.6954,0.7116,0.7169,0.7186,0.7408,0.7241,0.7253,0.7261,0.7266,0.7786,0.7792,0,0,0,0,0,0,0.6559,0.6594,0.689,0.6902,0.6694,0.6836,0.6859,0.6931,0.7047,0.7059,0.6958,0.6952,0.7149,0.7171,0.7193,0.742,0.7255,0.7267,0.7275,0.778,0.7787,0.7794,0,0,0,0,0,0,0.655,0.6586,0.6882,0.6748,0.6785,0.6849,0.693,0.6938,0.699,0.7066,0.7077,0.7001,0.7146,0.7175,0.7339,0.7426,0.7273,0.7285,0.7773,0.7782,0.779,0.7873,0,0,0,0,0,0,0.6539,0.6583,0.6653,0.675,0.6792,0.7023,0.6935,0.6945,0.7013,0.7006,0.7109,0.7121,0.7144,0.7319,0.7352,0.7442,0.7295,0.7765,0.7777,0.7788,0.7863,0.7884,0.7902,0,0,0,0,0,0.6525,0.6669,0.6657,0.6693,0.6882,0.7028,0.7053,0.7075,0.702,0.7092,0.7141,0.7118,0.7411,0.7336,0.7372,0.7468,0.776,0.7774,0.7787,0.7854,0.788,0.7901,0,0,0,0,0,0,0.6583,0.6682,0.6669,0.6849,0.6931,0.7022,0.7113,0.7101,0.72,0.719,0.7214,0.7238,0.7404,0.7452,0.7367,0.7654,0.7578,0.7599,0.7617,0.7642,0.7661,0.7646,0.7306,0,0,0,0,0,0.6616,0.6725,0.6807,0.6958,0.6999,0.705,0.7114,0.7124,0.721,0.7244,0.7305,0.739,0.7501,0.7574,0.768,0.7869,0.7892,0.7953,0.7972,0.7988,0.8006,0.8111,0.8139,0.7838,0.7837,0.7837,0,0,0.6687,0.6755,0.6823,0.6971,0.7035,0.715,0.7079,0.7202,0.7288,0.7263,0.7421,0.7469,0.7566,0.7743,0.7824,0.7788,0.8094,0.8005,0.8017,0.8027,0.8127,0.8156,0.8181,0.7847,0.7845,0.7843,0,0,0.6874,0.6936,0.7069,0.7134,0.7232,0.7264,0.7296,0.739,0.7421,0.7579,0.7563,0.7666,0.7857,0.7926,0.7987,0.8201,0.8184,0.8235,0.8337,0.8438,0.8462,0.8483,0.8561,0.8588,0.8253,0.8253,0.8253,0,0.695,0.712,0.7139,0.7265,0.7331,0.7313,0.7449,0.7512,0.764,0.7687,0.7644,0.7883,0.7947,0.8141,0.8193,0.8242,0.8281,0.8224,0.8457,0.8478,0.8499,0.8573,0.8601,0.8259,0.8258,0.8258,0.8257,0,0.721,0.7328,0.7424,0.7547,0.7624,0.7754,0.7794,0.787,0.7873,0.7911,0.8073,0.8149,0.8271,0.8317,0.8322,0.8513,0.8487,0.8451,0.8375,0.8532,0.8603,0.8631,0.8267,0.8265,0.8263,0.8262,0,0,0.7439,0.7571,0.7606,0.7662,0.7768,0.7861,0.799,0.8108,0.8174,0.8263,0.8373,0.8535,0.8502,0.857,0.8583,0.8672,0.8838,0.8625,0.8627,0.8662,0.9053,0.9081,0.9113,0.8827,0.8832,0.8837,0.9046,0,0.7637,0.7865,0.7886,0.8091,0.8201,0.8186,0.8299,0.8377,0.8416,0.8516,0.8559,0.8674,0.8621,0.8662,0.875,0.8799,0.8917,0.8784,0.8931,0.8936,0.8908,0.915,0.9179,0.9372,0.9073,0.9078,0.9081,0,0.7899,0.7994,0.821,0.8301,0.8349,0.845,0.856,0.8656,0.8745,0.8766,0.8843,0.8844,0.8979,0.8897,0.9084,0.8993,0.9054,0.9088,0.9096,0.9111,0.9018,0.9172,0.9434,0.9463,0.9124,0.9121,0.9118,0,0.8046,0.8229,0.8381,0.843,0.854,0.8612,0.8661,0.8744,0.8814,0.8911,0.8957,0.9068,0.913,0.9217,0.9248,0.9185,0.9434,0.9355,0.9457,0.9456,0.9511,0.9507,0.9787,0.9549,0.9549,0.9548,0.9547,0,0.8265,0.8398,0.8449,0.8543,0.8692,0.8715,0.8862,0.8908,0.8983,0.9086,0.908,0.9178,0.9213,0.9317,0.9342,0.9493,0.9521,0.9543,0.9549,0.9545,0.9542,0.9585,0.9573,0.9556,0.9554,0.9553,0.9551,0,0.8454,0.8494,0.8659,0.875,0.8776,0.8882,0.896,0.9052,0.9088,0.922,0.9252,0.9311,0.9433,0.9472,0.962,0.9637,0.9814,0.9807,0.9784,0.9785,0.9885,0.9875,1.0204,1.0248,0.998,0.9983,0.9985,0,0.8592,0.8694,0.8795,0.8864,0.8916,0.9026,0.9097,0.9125,0.9199,0.9308,0.9387,0.9507,0.9605,0.9801,0.9858,0.9971,0.9967,1.0075,0.9984,0.9977,0.997,0.9963,0.9974,1.0092,1.0094,1.0097,1.0099,0,0.8832,0.8847,0.8949,0.9058,0.9143,0.9231,0.9316,0.9372,0.9412,0.9497,0.9621,0.9697,0.9847,0.9967,1.0083,1.0135,1.0125,1.0126,1.0156,1.0153,1.0136,1.0147,0.983,1.0119,1.0117,1.0115,1.0114,1.0114,0.9001,0.909,0.9176,0.929,0.9356,0.9436,0.9526,0.9574,0.9678,0.9802,0.9812,0.9947,1.0034,1.0187,1.0245,1.0352,1.0321,1.0364,1.0375,1.0386,1.0394,1.0118,1.0373,1.0372,1.0372,1.0371,1.0371,0,0.9241,0.9295,0.94,0.9518,0.9608,0.9589,0.9682,0.9759,0.9877,0.9959,1.0055,1.0199,1.0315,1.0381,1.0497,1.057,1.0568,1.06,1.0595,1.0607,1.0414,1.0377,1.0599,1.0599,1.0599,1.0599,1.0599,1.0599,0.9376,0.9528,0.9552,0.9737,0.9791,0.9921,0.9976,1.005,1.0115,1.0275,1.0372,1.0413,1.0489,1.0611,1.0718,1.0734,1.0778,1.0813,1.0826,1.0644,1.0621,1.0599,1.0564,1.0822,1.0822,1.1011,1.1013,1.1014]},{"header":{"parameterUnit":"m.s-1","parameterCategory":1,"la1":30.2991,"la2":30.254,"lo1":-89.0895,"lo2":-89.0444,"dy":0.0017,"dx":0.0017,"nx":28,"ny":28,"refTime":"2023-08-26T03:00:00:Z","depth":0,"parameterNumber":3,"parameterNumberName":"V-component_of_WINDS"},"data":[0,0,0,0,0,0,0,0,0,0,0,0,0,0,0,0,0,0,0,0,0,0,0,0,0,0,0,0,0,0,0,0,0,0,0,0,0,0,0,0,0,0,0,0,0,0,0,0,0,0,0,0,0,0,0,0,0,0,1.8873,1.8874,0,1.8952,1.8953,1.8954,1.8845,1.8841,1.8837,1.8834,1.8913,1.8919,1.8925,0,0,0,0,0,0,0,0,0,0,0,0,0,1.8624,1.8629,1.8873,1.8874,1.8875,1.8952,1.8953,1.8954,1.8846,1.8841,1.8836,1.8832,1.8911,1.8918,1.8925,0,0,0,0,0,0,0,0,0,0,0,0,0,1.8721,1.8631,1.8873,1.883,1.8827,1.8952,1.8953,1.8954,1.8847,1.8841,1.8835,1.883,1.8909,1.8918,1.8926,1.9096,0,0,1.8952,1.8956,0,0,0,0,0,0,0,0,1.8715,1.873,1.8835,1.8833,1.883,1.8883,1.8894,1.9002,1.8848,1.8839,1.8833,1.8827,1.8908,1.8916,1.8944,1.91,1.9103,1.8953,1.8958,1.8962,1.8964,0,0,0,0,0,0,0,1.8709,1.8726,1.8904,1.8837,1.8834,1.8806,1.8813,1.8914,1.8905,1.884,1.8832,1.8843,1.8905,1.8936,1.8945,1.9104,1.8953,1.8961,1.8966,1.8969,1.9398,1.9404,0,0,0,0,0,0,1.8707,1.8721,1.8902,1.8907,1.8757,1.8815,1.8823,1.8872,1.8904,1.8903,1.8848,1.8837,1.8924,1.8935,1.8947,1.9144,1.8962,1.897,1.8975,1.9392,1.94,1.9406,0,0,0,0,0,0,1.8703,1.8725,1.8898,1.8812,1.8832,1.8825,1.8881,1.8876,1.8907,1.891,1.8907,1.8881,1.892,1.8935,1.9059,1.9146,1.8974,1.8982,1.9385,1.9394,1.9403,1.9543,0,0,0,0,0,0,1.8696,1.8724,1.8789,1.8814,1.8837,1.9011,1.8886,1.8882,1.8922,1.8909,1.894,1.894,1.8916,1.9046,1.9067,1.9155,1.8989,1.9377,1.9389,1.94,1.9531,1.9556,1.9578,0,0,0,0,0,1.8687,1.8826,1.8793,1.8816,1.8919,1.9016,1.9029,1.8999,1.893,1.8994,1.8996,1.8939,1.9134,1.906,1.9083,1.9174,1.9371,1.9386,1.9399,1.952,1.9551,1.9577,0,0,0,0,0,0,1.8813,1.8829,1.8792,1.8944,1.8979,1.8997,1.9078,1.9034,1.9089,1.9075,1.9035,1.9043,1.9175,1.9187,1.9105,1.9337,1.924,1.926,1.9325,1.9354,1.9377,1.9371,1.8996,0,0,0,0,0,1.8858,1.8936,1.8946,1.9078,1.9098,1.9085,1.9127,1.91,1.9135,1.915,1.916,1.9196,1.9264,1.931,1.9374,1.9532,1.9535,1.9606,1.9629,1.9649,1.9665,1.9746,1.9776,1.9452,1.9452,1.9452,0,0,1.8952,1.897,1.9022,1.9104,1.9128,1.9208,1.9099,1.9189,1.9247,1.9163,1.9279,1.9289,1.9325,1.9466,1.9528,1.948,1.9755,1.9667,1.9682,1.9688,1.9763,1.9794,1.9821,1.9462,1.946,1.9459,0,0,1.9164,1.9187,1.9298,1.9324,1.9362,1.9352,1.9379,1.9403,1.9406,1.9522,1.9459,1.9528,1.9648,1.9675,1.9705,1.9923,1.9872,1.9945,2.0068,2.0147,2.0172,2.0195,2.0269,2.0297,1.9962,1.9962,1.9963,0,1.9276,1.9395,1.9361,1.9454,1.949,1.9417,1.9528,1.9555,1.9612,1.9637,1.9582,1.9729,1.9749,1.9892,1.9945,1.9973,2.0,1.9941,2.0172,2.0194,2.0214,2.0284,2.0313,1.9971,1.997,1.9969,1.9968,0,1.9528,1.9612,1.9696,1.9752,1.9798,1.99,1.9879,1.9929,1.9899,1.9894,2.0011,2.0032,2.0097,2.013,2.0102,2.0269,2.0237,2.0178,2.0079,2.0254,2.0319,2.0346,1.9983,1.998,1.9977,1.9975,0,0,1.9822,1.9855,1.9887,1.9909,1.9944,2.0007,2.0104,2.0167,2.0209,2.025,2.0329,2.043,2.0375,2.0408,2.0382,2.0452,2.0619,2.0383,2.0383,2.0424,2.08,2.0843,2.0875,2.0585,2.0591,2.0595,2.0796,0,2.0031,2.0198,2.0169,2.0331,2.0405,2.0336,2.042,2.045,2.0447,2.0509,2.0506,2.0577,2.05,2.0519,2.0586,2.0585,2.0694,2.057,2.0655,2.0659,2.0646,2.091,2.0956,2.1145,2.0822,2.0826,2.0829,0,2.0297,2.0346,2.0516,2.0535,2.0565,2.0641,2.0694,2.0755,2.0786,2.0779,2.0815,2.0775,2.0869,2.0771,2.0898,2.0814,2.0847,2.0852,2.0858,2.0863,2.0753,2.0919,2.1205,2.1232,2.087,2.0867,2.0864,0,2.0489,2.0599,2.0713,2.0735,2.0762,2.0816,2.0829,2.0854,2.0893,2.0939,2.0963,2.102,2.1051,2.1095,2.107,2.1002,2.1201,2.1101,2.1195,2.1196,2.1239,2.1236,2.1531,2.1265,2.1265,2.1264,2.1264,0,2.0724,2.0829,2.0799,2.0869,2.0984,2.0949,2.1063,2.1068,2.1091,2.1159,2.1103,2.1168,2.1133,2.1195,2.1176,2.1282,2.1297,2.1292,2.1286,2.1296,2.1296,2.1315,2.13,2.1272,2.127,2.1269,2.1268,0,2.0958,2.0942,2.1062,2.1076,2.1082,2.1166,2.1178,2.1242,2.1235,2.1322,2.134,2.1329,2.1398,2.1378,2.1454,2.1441,2.1574,2.1552,2.1564,2.1557,2.1651,2.1641,2.1967,2.2006,2.1718,2.1721,2.1723,0,2.1108,2.1187,2.1209,2.1251,2.1268,2.1336,2.1374,2.1342,2.1384,2.1423,2.1482,2.1546,2.1596,2.1709,2.1707,2.1764,2.174,2.1851,2.1749,2.1755,2.1738,2.1732,2.1738,2.187,2.1874,2.1876,2.1879,0,2.1373,2.1361,2.1418,2.1472,2.1519,2.1561,2.1596,2.1633,2.1603,2.1652,2.1722,2.1761,2.1837,2.19,2.1951,2.1963,2.1915,2.1911,2.1935,2.1945,2.1947,2.1944,2.1616,2.1903,2.1901,2.1899,2.1898,2.1897,2.1567,2.1633,2.1658,2.1722,2.1746,2.178,2.184,2.1839,2.1897,2.1956,2.1933,2.2013,2.2038,2.2101,2.212,2.218,2.2137,2.2174,2.2182,2.2191,2.2201,2.194,2.2189,2.2189,2.2188,2.2187,2.2187,0,2.1827,2.1839,2.1899,2.195,2.2,2.1951,2.1987,2.2032,2.2103,2.2131,2.218,2.2258,2.2319,2.232,2.2376,2.2424,2.2403,2.2439,2.2434,2.2437,2.2237,2.2209,2.2455,2.2455,2.2455,2.2455,2.2455,2.2455,2.1968,2.2074,2.2065,2.2181,2.2192,2.2269,2.2294,2.2324,2.2345,2.2435,2.2485,2.2486,2.2502,2.2558,2.261,2.2609,2.263,2.2675,2.2665,2.2478,2.2451,2.2426,2.2399,2.268,2.2681,2.2859,2.286,2.2861]}]]